sat.trackr.live / text

‹ back to catalog

STARLINK-32131

NORAD 60153 · 2024-120U

PAYLOAD ACTIVE UNKNOWN

§ Identity

Operator
Country
US
Launch date
2024-06-27
Launch site
AFETR
Launch vehicle
Mass (kg)
RCS (m²)

Purposes: comms

External: N2YO · Heavens-Above · Gunter

§ Orbital elements

Epoch: 2026-09-21T20:54:37.416960Z

Period
93.85 min
Inclination
53.1595°
Eccentricity
0.0001336
Mean motion
15.34385364 rev/d
Perigee alt
461.8 km
Apogee alt
463.7 km
Semi-major
6,840.9 km
B*
3.1860e-5
RAAN
125.0503°
Arg perigee
91.0685°
Mean anomaly
269.0471°
Rev number
12,654

§ Raw data

STARLINK-321311 60153U 24120U   26264.87126640  .00000700  00000+0  31860-4 0  99962 60153  53.1595 125.0503 0001336  91.0685 269.0471 15.34385364126542

JSON: /api/v1/satellites/60153 · /tle

For live sub-satellite position, see the globe view (requires WebGL).

§ Visibility from observer

Set your observer location to see the next 7 days of passes ≥ 10°. The values pass through the URL so the page stays shareable.

No JS? Fill the form by hand. The geolocation button needs JavaScript.